GW5891 Weather Reports


time (UTC)temp
F
wind
direction
speed
knots
gust
knots
rain 1hr
in
rain 24hr
in
rain mn
in
humidity
%
barometer
mb
20260508165014 69 68 1.7 1.7 0.00 0.00 0.00 33 1017.5
20260508164511 68 300 0.0 3.5 0.00 0.00 0.00 30 1017.5
20260508164007 68 280 0.0 2.6 0.00 0.00 0.00 33 1017.6
20260508163505 67 119 0.0 1.7 0.00 0.00 0.00 33 1017.5
20260508163001 66 224 0.0 2.6 0.00 0.00 0.00 31 1017.7
20260508162458 67 0 3.5 3.5 0.00 0.00 0.00 30 1017.6
20260508161955 66 193 1.7 1.7 0.00 0.00 0.00 30 1017.8
20260508161452 66 144 0.9 1.7 0.00 0.00 0.00 31 1017.9
20260508160949 65 167 0.9 1.7 0.00 0.00 0.00 36 1017.9
20260508160448 65 258 0.0 3.5 0.00 0.00 0.00 33 1018.2
20260508155944 64 286 0.0 2.6 0.00 0.00 0.00 35 1018.1
20260508155441 64 119 0.0 1.7 0.00 0.00 0.00 33 1018.2
20260508154938 64 237 1.7 2.6 0.00 0.00 0.00 37 1018.2
20260508154436 63 315 0.0 2.6 0.00 0.00 0.00 31 1018.4
20260508153932 63 193 2.6 2.6 0.00 0.00 0.00 31 1018.4
20260508153429 63 158 0.9 1.7 0.00 0.00 0.00 33 1018.5
20260508152925 63 0 0.0 1.7 0.00 0.00 0.00 39 1018.3
20260508152422 62 7 0.9 1.7 0.00 0.00 0.00 43 1018.6
20260508151918 62 74 1.7 1.7 0.00 0.00 0.00 48 1018.5
20260508151415 62 11 0.9 1.7 0.00 0.00 0.00 46 1018.6
20260508150912 61 269 0.0 0.0 0.00 0.00 0.00 48 1018.5
20260508150408 61 212 0.9 1.7 0.00 0.00 0.00 46 1018.6
20260508145904 60 2 0.9 1.7 0.00 0.00 0.00 38 1018.5
20260508145401 60 89 0.0 2.6 0.00 0.00 0.00 44 1018.7
20260508144858 60 221 0.0 1.7 0.00 0.00 0.00 46 1018.6
20260508144356 60 106 0.0 1.7 0.00 0.00 0.00 53 1018.5
20260508143853 59 213 0.0 0.9 0.00 0.00 0.00 54 1018.7
20260508143350 59 123 0.0 1.7 0.00 0.00 0.00 51 1018.7
20260508142847 59 206 0.9 1.7 0.00 0.00 0.00 54 1018.6
20260508142344 59 15 0.0 1.7 0.00 0.00 0.00 52 1018.6
20260508141840 58 2 0.0 1.7 0.00 0.00 0.00 52 1018.6
20260508141337 58 2 1.7 1.7 0.00 0.00 0.00 51 1018.7
20260508140834 57 132 0.9 1.7 0.00 0.00 0.00 52 1018.7
20260508140331 57 132 0.0 1.7 0.00 0.00 0.00 53 1018.4
20260508135827 57 320 1.7 2.6 0.00 0.00 0.00 54 1018.6
20260508135324 56 86 0.9 1.7 0.00 0.00 0.00 62 1018.6
20260508134820 55 217 0.0 1.7 0.00 0.00 0.00 58 1018.6
20260508134317 55 58 0.0 1.7 0.00 0.00 0.00 64 1018.6
20260508133813 55 269 0.0 0.9 0.00 0.00 0.00 64 1018.5
20260508133311 54 207 0.0 0.9 0.00 0.00 0.00 68 1018.6
20260508132808 53 31 0.0 0.9 0.00 0.00 0.00 70 1018.4
20260508132306 53 64 0.0 0.0 0.00 0.00 0.00 70 1018.5
20260508131801 52 355 0.0 1.7 0.00 0.00 0.00 70 1018.6
20260508131258 52 304 1.7 1.7 0.00 0.00 0.00 71 1018.5
20260508130754 51 229 0.0 0.0 0.00 0.00 0.00 74 1018.6
20260508130252 51 289 0.0 0.0 0.00 0.00 0.00 77 1018.7
20260508125747 51 322 0.0 0.0 0.00 0.00 0.00 79 1018.3
20260508125244 50 322 0.0 0.0 0.00 0.00 0.00 79 1018.6
20260508124742 49 241 0.0 0.9 0.00 0.00 0.00 81 1018.5
20260508124239 49 299 0.0 0.9 0.00 0.00 0.00 83 1018.5
20260508123737 48 89 0.0 0.0 0.00 0.00 0.00 82 1018.3
20260508123235 48 83 0.9 1.7 0.00 0.00 0.00 84 1018.4
20260508122731 47 64 0.0 0.9 0.00 0.00 0.00 90 1018.2
20260508122228 46 21 0.0 0.0 0.00 0.00 0.00 92 1018.1
20260508121725 46 315 0.0 0.0 0.00 0.00 0.00 93 1018.1
20260508121224 46 327 0.0 0.9 0.00 0.00 0.00 93 1018.1
20260508120720 45 350 1.7 1.7 0.00 0.00 0.00 93 1018.2
20260508120219 45 43 0.9 1.7 0.00 0.00 0.00 93 1018.2
20260508115716 45 6 0.0 0.0 0.00 0.00 0.00 92 1018.1
20260508115213 44 6 0.0 0.0 0.00 0.00 0.00 92 1018.0
20260508114710 44 359 0.0 0.0 0.00 0.00 0.00 93 1017.9
20260508114207 44 300 0.0 1.7 0.00 0.00 0.00 94 1017.9
20260508113703 44 330 0.9 1.7 0.00 0.00 0.00 94 1017.7
20260508113202 43 334 0.9 0.9 0.00 0.00 0.00 94 1017.5
20260508112657 43 314 0.9 1.7 0.00 0.00 0.00 94 1017.4
20260508112155 43 287 0.0 1.7 0.00 0.00 0.00 94 1017.3
20260508111651 43 33 0.0 0.9 0.00 0.00 0.00 94 1017.5
20260508111149 43 337 1.7 1.7 0.00 0.00 0.00 93 1017.3
20260508110646 43 335 1.7 1.7 0.00 0.00 0.00 93 1017.4
20260508110142 43 347 1.7 1.7 0.00 0.00 0.00 93 1017.4
20260508105637 43 310 1.7 1.7 0.00 0.00 0.00 92 1017.2
20260508105134 43 211 0.0 0.9 0.00 0.00 0.00 92 1017.2
20260508104632 44 216 0.0 0.9 0.00 0.00 0.00 92 1017.0
20260508104128 44 20 0.0 0.9 0.00 0.00 0.00 93 1016.7
20260508103626 44 287 0.9 1.7 0.00 0.00 0.00 93 1016.6
20260508103123 44 31 0.9 0.9 0.00 0.00 0.00 92 1016.4
20260508102620 44 0 0.9 1.7 0.00 0.00 0.00 92 1016.4
20260508102118 44 324 0.0 1.7 0.00 0.00 0.00 91 1016.3
20260508101615 44 321 1.7 1.7 0.00 0.00 0.00 91 1016.3
20260508101112 44 321 0.9 1.7 0.00 0.00 0.00 90 1016.2
20260508100610 44 302 1.7 1.7 0.00 0.00 0.00 90 1016.3
20260508100107 44 2 0.0 1.7 0.00 0.00 0.00 90 1016.3
20260508095604 44 342 0.0 0.9 0.00 0.00 0.00 90 1016.2
20260508095101 45 2 0.0 1.7 0.00 0.00 0.00 90 1016.0
20260508094558 45 347 1.7 1.7 0.00 0.00 0.00 91 1016.1
20260508094055 45 47 0.0 1.7 0.00 0.00 0.00 91 1015.9
20260508093552 45 18 0.0 1.7 0.00 0.00 0.00 91 1015.9
20260508093050 45 298 0.9 1.7 0.00 0.00 0.00 90 1016.0
20260508092547 45 348 0.0 0.9 0.00 0.00 0.00 90 1016.0
20260508092046 46 43 0.0 1.7 0.00 0.00 0.00 89 1015.9
20260508091542 46 292 0.9 0.9 0.00 0.00 0.00 88 1015.6
20260508091039 46 51 0.0 0.0 0.00 0.00 0.00 88 1015.7
20260508090537 47 323 0.0 0.9 0.00 0.00 0.00 87 1015.7
20260508090033 48 73 0.0 0.9 0.00 0.00 0.00 86 1015.8
20260508085530 48 26 0.0 1.7 0.00 0.00 0.00 85 1015.7
20260508085027 49 341 1.7 1.7 0.00 0.00 0.00 80 1015.4
20260508084524 49 341 1.7 2.6 0.00 0.00 0.00 77 1015.6
20260508084021 48 335 2.6 2.6 0.00 0.00 0.00 77 1015.7
20260508083519 48 342 1.7 2.6 0.00 0.00 0.00 80 1015.7
20260508083015 47 350 1.7 1.7 0.00 0.00 0.00 81 1015.6
20260508082511 47 342 1.7 1.7 0.00 0.00 0.00 87 1015.5
20260508082009 46 355 1.7 1.7 0.00 0.00 0.00 91 1015.7
20260508081506 46 335 1.7 2.6 0.00 0.00 0.00 92 1015.5
20260508081001 46 358 0.0 1.7 0.00 0.00 0.00 92 1015.7
20260508080500 47 10 0.9 1.7 0.00 0.00 0.00 91 1015.5
20260508075956 47 307 0.0 0.9 0.00 0.00 0.00 91 1015.5
20260508075453 47 40 0.9 1.7 0.00 0.00 0.00 90 1015.6
20260508074951 47 2 0.0 0.9 0.00 0.00 0.00 90 1015.5
20260508074449 47 28 0.0 0.9 0.00 0.00 0.00 89 1015.4
20260508073945 48 343 0.0 0.9 0.00 0.00 0.00 89 1015.2
20260508073443 48 11 0.0 0.9 0.00 0.00 0.00 89 1015.3
20260508072939 48 2 0.0 0.9 0.00 0.00 0.00 89 1015.3
20260508072436 48 16 0.0 0.9 0.00 0.00 0.00 89 1015.2
20260508071933 48 16 0.0 0.9 0.00 0.00 0.00 87 1015.3
20260508071431 48 21 0.0 0.9 0.00 0.00 0.00 89 1015.3
20260508070928 48 333 0.0 1.7 0.00 0.00 0.00 89 1015.2
20260508070426 48 2 1.7 2.6 0.00 0.00 0.00 88 1015.2
20260508065924 48 29 0.0 1.7 0.00 0.00 0.00 88 1015.1
20260508065422 48 14 1.7 1.7 0.00 0.00 0.00 87 1015.3
20260508064920 48 339 1.7 1.7 0.00 0.00 0.00 88 1015.1
20260508064417 48 350 0.9 1.7 0.00 0.00 0.00 88 1015.1
20260508063914 49 30 0.0 1.7 0.00 0.00 0.00 88 1015.1
20260508063412 49 356 0.0 0.9 0.00 0.00 0.00 87 1015.1
20260508062908 49 315 0.0 1.7 0.00 0.00 0.00 88 1015.1
20260508062401 49 5 0.9 0.9 0.00 0.00 0.00 87 1015.2
20260508061858 49 338 0.9 1.7 0.00 0.00 0.00 87 1014.9
20260508061355 49 33 0.9 1.7 0.00 0.00 0.00 86 1015.0
20260508060851 49 357 0.9 1.7 0.00 0.00 0.00 87 1014.8
20260508060350 49 358 1.7 1.7 0.00 0.00 0.00 88 1014.8
20260508055849 49 10 0.9 1.7 0.00 0.00 0.00 89 1015.2
20260508055347 49 16 0.0 1.7 0.00 0.00 0.00 88 1015.2
20260508054843 49 327 2.6 2.6 0.00 0.00 0.00 87 1014.9
20260508054341 49 45 0.0 1.7 0.00 0.00 0.00 88 1015.0
20260508053838 49 40 0.0 0.0 0.00 0.00 0.00 87 1015.0
20260508053335 50 1 0.0 1.7 0.00 0.00 0.00 86 1015.2
20260508052832 50 327 0.0 0.9 0.00 0.00 0.00 87 1014.8
20260508052330 50 337 0.0 1.7 0.00 0.00 0.00 85 1014.9
20260508051826 50 31 0.0 1.7 0.00 0.00 0.00 85 1014.9
20260508051321 50 58 0.9 1.7 0.00 0.00 0.00 84 1014.8
20260508050818 51 328 1.7 1.7 0.00 0.00 0.00 83 1014.9
20260508050315 51 322 0.9 0.9 0.00 0.00 0.00 82 1014.9
20260508045811 51 292 0.9 1.7 0.00 0.00 0.00 82 1014.7
20260508045309 52 319 0.0 0.0 0.00 0.00 0.00 82 1014.6
20260508044806 52 38 0.0 1.7 0.00 0.00 0.00 79 1014.6
20260508044303 52 55 1.7 1.7 0.00 0.00 0.00 80 1014.5
20260508043759 53 2 0.0 2.6 0.00 0.00 0.00 79 1014.4
20260508043256 53 97 0.0 1.7 0.00 0.00 0.00 77 1014.6
20260508042752 54 198 0.9 1.7 0.00 0.00 0.00 76 1014.5
20260508042250 54 233 0.9 1.7 0.00 0.00 0.00 76 1014.4
20260508041747 54 182 0.0 0.9 0.00 0.00 0.00 73 1014.5
20260508041243 54 42 1.7 2.6 0.00 0.00 0.00 72 1014.2
20260508040740 54 28 0.0 1.7 0.00 0.00 0.00 72 1014.5
20260508040237 54 17 1.7 1.7 0.00 0.00 0.00 74 1014.2
20260508035734 54 358 3.5 3.5 0.00 0.13 0.13 72 1014.4
20260508035232 53 341 1.7 2.6 0.00 0.13 0.13 73 1014.5
20260508034728 53 314 1.7 3.5 0.00 0.13 0.13 74 1014.1
20260508034226 53 280 1.7 2.6 0.00 0.13 0.13 74 1014.2
20260508033722 52 256 0.0 0.9 0.00 0.13 0.13 78 1014.4
20260508033221 52 25 1.7 1.7 0.00 0.13 0.13 77 1014.6
20260508032718 53 277 0.0 2.6 0.00 0.13 0.13 77 1014.5
20260508032215 53 30 0.0 1.7 0.00 0.13 0.13 77 1014.0
20260508031712 53 356 0.9 1.7 0.00 0.13 0.13 76 1014.5
20260508031203 53 60 0.0 0.9 0.00 0.13 0.13 74 1014.5
20260508030659 54 6 0.0 1.7 0.00 0.13 0.13 74 1014.4
20260508030157 54 15 0.0 0.9 0.00 0.13 0.13 74 1014.2
20260508025653 55 6 0.0 0.9 0.00 0.13 0.13 74 1014.1
20260508025150 55 344 1.7 3.5 0.00 0.13 0.13 68 1013.9
20260508024646 55 321 1.7 2.6 0.00 0.13 0.13 68 1013.8
20260508024144 56 357 1.7 4.3 0.00 0.13 0.13 66 1013.8
20260508023639 56 316 1.7 3.5 0.00 0.13 0.13 66 1013.7
20260508023137 56 333 3.5 5.2 0.00 0.13 0.13 66 1013.6
20260508022633 56 342 2.6 4.3 0.00 0.13 0.13 66 1013.7
20260508022130 55 332 2.6 3.5 0.00 0.13 0.13 68 1013.6
20260508021626 55 311 3.5 3.5 0.00 0.13 0.13 71 1013.7
20260508021122 55 5 0.9 2.6 0.00 0.13 0.13 68 1013.6
20260508020620 55 343 1.7 2.6 0.00 0.13 0.13 69 1013.5
20260508020117 55 348 2.6 2.6 0.00 0.13 0.13 70 1013.3
20260508015614 55 315 1.7 3.5 0.00 0.13 0.13 67 1013.4
20260508015111 55 337 0.9 2.6 0.00 0.13 0.13 68 1013.3
20260508014607 55 310 4.3 4.3 0.00 0.13 0.13 69 1013.3
20260508014104 55 305 2.6 4.3 0.00 0.13 0.13 69 1013.2
20260508013600 54 332 5.2 5.2 0.00 0.13 0.13 71 1013.1
20260508013057 54 322 3.5 4.3 0.00 0.13 0.13 72 1012.8
20260508012555 54 314 2.6 2.6 0.00 0.13 0.13 74 1012.9
20260508012052 54 321 1.7 3.5 0.00 0.13 0.13 74 1012.8
20260508011550 54 318 3.5 4.3 0.00 0.13 0.13 74 1012.7
20260508011047 55 332 0.9 2.6 0.00 0.13 0.13 72 1012.7
20260508010544 55 333 1.7 3.5 0.00 0.13 0.13 71 1012.5
20260508010042 56 333 1.7 3.5 0.00 0.13 0.13 70 1012.5
20260508005537 56 335 1.7 2.6 0.00 0.13 0.13 69 1012.5
20260508005034 57 311 2.6 3.5 0.00 0.13 0.13 66 1012.4
20260508004530 57 250 0.9 2.6 0.00 0.13 0.13 63 1012.5
20260508004027 57 324 3.5 6.1 0.00 0.13 0.13 61 1012.4
20260508003523 58 292 1.7 1.7 0.00 0.13 0.13 65 1012.2
20260508003021 58 311 2.6 2.6 0.00 0.13 0.13 60 1012.2
20260508002517 58 338 1.7 2.6 0.00 0.13 0.13 59 1012.5
20260508002015 58 308 1.7 4.3 0.00 0.13 0.13 60 1012.4
20260508001510 58 319 3.5 4.3 0.00 0.13 0.13 60 1012.4
20260508001006 59 328 2.6 3.5 0.00 0.13 0.13 59 1012.3
20260508000502 59 313 7.0 7.8 0.00 0.13 0.13 59 1012.3
20260508000001 59 344 0.9 1.7 0.00 0.13 0.13 59 1012.3
20260507235456 59 301 5.2 8.7 0.00 0.13 0.13 58 1012.1
20260507234954 59 13 2.6 2.6 0.00 0.13 0.13 59 1012.3
20260507234451 59 252 1.7 7.0 0.00 0.13 0.13 58 1012.2
20260507233949 60 310 8.7 8.7 0.00 0.13 0.13 58 1012.2
20260507233444 60 297 10.4 12.2 0.00 0.13 0.13 58 1012.1
20260507232943 60 0 2.6 3.5 0.00 0.13 0.13 59 1012.1
20260507232438 60 85 0.0 4.3 0.00 0.13 0.13 61 1011.9
20260507231936 61 349 3.5 3.5 0.00 0.13 0.13 61 1012.0
20260507231431 61 268 2.6 11.3 0.00 0.13 0.13 59 1012.0
20260507230928 61 300 3.5 7.8 0.00 0.13 0.13 60 1012.0
20260507230426 62 356 3.5 5.2 0.00 0.13 0.13 59 1011.7
20260507225926 62 310 4.3 4.3 0.00 0.13 0.13 59 1011.9
20260507225422 63 338 3.5 6.1 0.00 0.13 0.13 58 1011.7
20260507224919 63 7 1.7 4.3 0.00 0.13 0.13 59 1011.7
20260507224414 64 329 0.9 5.2 0.00 0.13 0.13 58 1011.5
20260507223911 64 325 2.6 2.6 0.00 0.13 0.13 59 1011.4
20260507223407 64 295 1.7 5.2 0.00 0.13 0.13 59 1011.2
20260507222905 64 75 1.7 4.3 0.00 0.13 0.13 58 1010.8
20260507222401 64 320 2.6 4.3 0.00 0.13 0.13 59 1010.7
20260507221858 64 310 5.2 6.1 0.00 0.13 0.13 58 1010.7
20260507221355 65 330 3.5 4.3 0.00 0.13 0.13 59 1010.7
20260507220851 65 336 4.3 5.2 0.00 0.13 0.13 57 1010.4
20260507220349 66 324 6.1 9.6 0.00 0.13 0.13 56 1010.6
20260507215845 67 317 5.2 5.2 0.00 0.13 0.13 56 1010.5
20260507215343 68 18 3.5 5.2 0.00 0.13 0.13 56 1010.4
20260507214840 68 352 3.5 7.0 0.00 0.13 0.13 55 1010.1
20260507214338 68 38 0.0 2.6 0.00 0.13 0.13 56 1010.0
20260507213837 68 337 1.7 5.2 0.00 0.13 0.13 55 1010.0
20260507213335 69 345 3.5 4.3 0.00 0.13 0.13 54 1009.7
20260507212831 69 326 5.2 7.8 0.00 0.13 0.13 53 1009.7
20260507212327 70 18 6.1 6.1 0.00 0.13 0.13 54 1009.6
20260507211824 71 114 0.9 6.1 0.00 0.13 0.13 52 1009.5
20260507211321 71 22 1.7 4.3 0.00 0.13 0.13 53 1009.3
20260507210818 71 315 6.1 8.7 0.00 0.13 0.13 51 1009.2
20260507210315 71 297 1.7 3.5 0.00 0.13 0.13 52 1009.3
20260507205811 71 354 2.6 3.5 0.00 0.13 0.13 52 1009.1
20260507205308 71 326 4.3 7.0 0.00 0.13 0.13 52 1009.1
20260507204804 71 321 6.1 9.6 0.00 0.13 0.13 52 1009.1
20260507204302 72 239 0.9 7.8 0.00 0.13 0.13 51 1009.1
20260507203759 72 268 0.9 6.1 0.00 0.13 0.13 53 1008.9
20260507203257 72 342 5.2 8.7 0.00 0.13 0.13 51 1008.8
20260507202753 72 61 1.7 15.6 0.00 0.13 0.13 52 1008.8
20260507202249 72 223 4.3 10.4 0.00 0.13 0.13 51 1008.8
20260507201744 73 321 7.0 9.6 0.00 0.13 0.13 52 1008.6
20260507201241 73 71 4.3 11.3 0.00 0.13 0.13 52 1008.6
20260507200737 73 358 3.5 11.3 0.00 0.13 0.13 52 1008.8
20260507200233 74 171 1.7 4.3 0.00 0.13 0.13 53 1008.7
20260507195730 73 339 4.3 6.1 0.00 0.13 0.13 52 1008.5
20260507195227 74 300 2.6 12.2 0.00 0.13 0.13 51 1008.7
20260507194724 75 262 0.9 7.0 0.00 0.13 0.13 51 1008.5
20260507194220 76 308 2.6 6.1 0.00 0.13 0.13 50 1008.5
20260507193717 76 356 1.7 4.3 0.00 0.13 0.13 51 1008.4
20260507193214 75 334 0.9 4.3 0.00 0.13 0.13 52 1008.4
20260507192710 77 330 7.8 10.4 0.00 0.13 0.13 50 1008.3
20260507192207 76 297 0.9 1.7 0.00 0.13 0.13 53 1008.4
20260507191702 76 192 1.7 5.2 0.00 0.13 0.13 52 1008.5
20260507191200 76 338 2.6 6.1 0.00 0.13 0.13 52 1008.5
20260507190657 75 21 1.7 6.1 0.00 0.13 0.13 55 1008.6
20260507190155 75 4 1.7 2.6 0.00 0.13 0.13 56 1008.4
20260507185653 74 341 1.7 5.2 0.00 0.13 0.13 56 1008.7
20260507185149 75 305 3.5 9.6 0.00 0.13 0.13 55 1008.6
20260507184647 74 326 1.7 3.5 0.00 0.13 0.13 57 1008.7
20260507184145 73 351 1.7 3.5 0.00 0.13 0.13 64 1008.8
20260507183641 72 349 1.7 4.3 0.00 0.13 0.13 63 1008.8
20260507183139 73 351 2.6 4.3 0.00 0.13 0.13 63 1009.0
20260507182635 74 341 1.7 1.7 0.00 0.13 0.13 65 1008.8
20260507182131 73 328 0.0 2.6 0.00 0.13 0.13 67 1009.0
20260507181628 74 332 5.2 5.2 0.00 0.13 0.13 71 1008.8
20260507181124 74 321 1.7 1.7 0.00 0.13 0.13 70 1008.9
20260507180620 74 346 1.7 3.5 0.00 0.13 0.13 71 1008.8
20260507180118 74 258 0.0 0.0 0.00 0.13 0.13 75 1008.8
20260507175613 73 69 0.9 2.6 0.00 0.13 0.13 73 1008.8
20260507175111 72 313 0.0 0.9 0.00 0.13 0.13 74 1008.8
20260507174608 72 340 0.9 1.7 0.00 0.13 0.13 77 1008.9
20260507174106 73 21 0.0 0.9 0.00 0.13 0.13 73 1008.7
20260507173603 73 318 0.9 1.7 0.00 0.13 0.13 72 1008.8
20260507173100 73 9 0.0 1.7 0.00 0.13 0.13 70 1008.8
20260507172555 73 284 1.7 2.6 0.00 0.13 0.13 70 1008.6
20260507172053 74 277 0.0 1.7 0.00 0.13 0.13 68 1008.6
20260507171548 74 228 0.0 1.7 0.00 0.13 0.13 67 1008.6
20260507171046 74 276 0.9 2.6 0.00 0.13 0.13 69 1008.7
20260507170542 73 97 0.0 0.0 0.00 0.13 0.13 72 1009.0
20260507170039 72 302 1.7 3.5 0.00 0.13 0.13 69 1008.9
20260507165535 72 27 1.7 1.7 0.00 0.13 0.13 76 1009.1